Weather History for KFYV - January, 2013

Change the Weather History Date:

Monday, January 14, 2013

  Actual Average Record
Temperature  
Mean Temperature 24 °F 35 °F  
Max Temperature 33 °F 46 °F 71 °F (1952)
Min Temperature 14 °F 25 °F -7 °F (1964)
Degree Days  
Heating Degree Days 41 30  
Month to date heating degree days 395 420  
Since 1 July heating degree days 1913 2103  
Moisture  
Dew Point 14 °F    
Average Humidity 73    
Maximum Humidity 92    
Minimum Humidity 53    
Precipitation  
Precipitation 0.00 in 0.09 in - ()
Month to date precipitation 0.34 1.30  
Year to date precipitation 0.34 1.30  
Sea Level Pressure  
Sea Level Pressure 30.39 in    
Wind  
Wind Speed 4 mph (NE)    
Max Wind Speed 13 mph    
Max Gust Speed 16 mph    
Visibility 10 miles    
Events      
T = Trace of Precipitation, MM = Missing Value Source: NWS Daily Summary

Daily Weather History Graph

Daily Weather History Graph

Search for Another Location

Airport or City:

Trip Planner

Search our weather history database for the weather conditions in past years. The results will help you decide how hot, cold, wet, or windy it might be!

Date:

Astronomy

Jan. 14, 2013 Rise Set
Actual Time 7:26 AM CST 5:25 PM CST
Civil Twilight 6:58 AM CST 5:53 PM CST
Nautical Twilight 6:27 AM CST 6:24 PM CST
Astronomical Twilight 5:56 AM CST 6:55 PM CST
Moon 9:08 AM CST (1/14) 9:03 PM CST (1/14)
Length of Visible Light 10h 54m
Length of Day
9h 58m
Waxing Crescent, 11% of the Moon is Illuminated
Jan 14
Waxing Crescent
Jan 18
First Quarter
Jan 26
Full
Feb 3
Last Quarter
Feb 10
New

Hourly Weather History & Observations

Time (CST) Temp. Windchill Dew Point Humidity Pressure Visibility Wind Dir Wind Speed Gust Speed Precip Events Conditions
12:53 AM 17.1 °F - 15.1 °F 92% 30.40 in 10.0 mi Calm Calm - N/A   Clear
1:53 AM 16.0 °F - 12.9 °F 88% 30.41 in 10.0 mi Calm Calm - N/A   Clear
2:53 AM 16.0 °F - 12.9 °F 88% 30.41 in 10.0 mi Calm Calm - N/A   Clear
3:53 AM 17.1 °F 10.0 °F 14.0 °F 88% 30.38 in 10.0 mi NNE 4.6 mph - N/A   Clear
4:53 AM 16.0 °F 8.8 °F 12.9 °F 88% 30.37 in 10.0 mi NNE 4.6 mph - N/A   Clear
5:53 AM 15.1 °F - 12.0 °F 88% 30.40 in 10.0 mi Calm Calm - N/A   Clear
6:53 AM 17.1 °F 10.0 °F 12.9 °F 84% 30.40 in 10.0 mi NE 4.6 mph - N/A   Clear
7:53 AM 19.0 °F 11.1 °F 14.0 °F 81% 30.43 in 10.0 mi ENE 5.8 mph - N/A   Overcast
8:53 AM 19.9 °F 12.1 °F 12.9 °F 74% 30.47 in 10.0 mi East 5.8 mph - N/A   Overcast
9:53 AM 21.0 °F 12.4 °F 12.9 °F 71% 30.47 in 10.0 mi NNE 6.9 mph - N/A   Overcast
10:53 AM 21.9 °F 14.5 °F 12.0 °F 66% 30.48 in 10.0 mi Variable 5.8 mph - N/A   Mostly Cloudy
11:53 AM 24.1 °F 16.0 °F 14.0 °F 65% 30.44 in 10.0 mi NE 6.9 mph - N/A   Overcast
12:53 PM 28.0 °F 20.0 °F 15.1 °F 58% 30.40 in 10.0 mi NE 8.1 mph - N/A   Partly Cloudy
1:53 PM 30.0 °F 22.4 °F 16.0 °F 56% 30.36 in 10.0 mi NE 8.1 mph - N/A   Clear
2:53 PM 32.0 °F 25.6 °F 17.6 °F 55% 30.31 in 10.0 mi NE 6.9 mph - N/A   Clear
3:53 PM 32.0 °F 24.8 °F 17.1 °F 54% 30.35 in 10.0 mi ENE 8.1 mph - N/A   Clear
4:53 PM 30.0 °F 24.1 °F 16.0 °F 56% 30.35 in 10.0 mi ENE 5.8 mph - N/A   Clear
5:53 PM 28.0 °F - 16.0 °F 61% 30.35 in 10.0 mi Calm Calm - N/A   Clear
6:53 PM 26.1 °F - 15.1 °F 63% 30.36 in 10.0 mi Calm Calm - N/A   Clear
7:53 PM 24.1 °F 19.7 °F 12.9 °F 62% 30.36 in 10.0 mi ENE 3.5 mph - N/A   Clear
8:53 PM 21.9 °F - 12.0 °F 66% 30.37 in 10.0 mi Calm Calm - N/A   Clear
9:53 PM 19.0 °F - 10.9 °F 71% 30.36 in 10.0 mi Calm Calm - N/A   Clear
10:53 PM 19.9 °F - 10.9 °F 68% 30.36 in 10.0 mi Calm Calm - N/A   Clear
11:53 PM 19.9 °F - 12.0 °F 71% 30.35 in 10.0 mi Calm Calm - N/A   Clear